Dewpoint
57 58 62 62 60 61 62 64 65 65 66 66 67 67 67 68 69 70 70 72 72 73 73 74 74 74 74 73 73 74 73 74 73 72 72 72 72 73 73 72 72 74 72 71 72 73 74 75 75 75 75 75 75 76 76 77 77 75 76 78 77 76 76
56 56 59 61 61 62 63 64 65 65 66 66 67 68 67 68 70 70 70 72 72 72 73 73 74 74 73 74 73 75 74 74 74 74 73 74 75 74 73 74 73 74 75 74 73 75 75 74 74 75 75 75 75 76 75 76 76 76 75 77 75 76 76
56 56 59 61 61 62 64 64 65 65 66 66 66 67 68 69 70 70 70 71 72 72 72 73 74 73 74 74 74 74 74 73 73 73 72 70 72 70 72 74 74 72 72 73 75 73 74 74 76 75 75 74 73 75 76 76 76 75 76 77 75 74 76
56 56 59 61 63 64 64 65 65 65 65 65 66 66 67 70 70 70 70 70 71 72 72 72 72 72 73 74 73 74 74 74 73 71 70 71 71 71 73 73 74 73 73 73 72 73 71 74 74 75 76 75 75 74 75 75 74 75 75 77 76 75 76
56 56 59 60 61 63 63 64 65 66 66 67 67 68 68 69 69 70 70 70 69 70 71 71 70 71 73 73 72 71 72 73 73 73 72 72 73 73 72 70 71 72 72 72 73 75 76 75 73 74 74 76 74 74 75 75 74 76 76 77 76 75 74
57 57 58 59 60 62 63 63 64 65 65 67 68 67 67 68 69 69 70 71 70 70 71 71 71 72 73 72 71 71 73 74 75 75 73 74 74 72 71 72 71 72 71 72 72 73 74 74 73 73 72 72 72 72 72 73 73 73 75 76 75 74 72
58 58 58 58 59 60 62 63 63 64 66 67 68 68 67 67 69 69 69 70 70 70 70 70 71 72 73 72 72 73 73 72 74 73 73 73 73 73 73 73 73 72 71 73 73 73 73 73 74 74 73 72 73 72 73 75 74 74 75 76 76 76 76
60 58 59 58 58 59 60 63 63 64 66 67 67 68 67 67 68 69 70 71 71 72 72 72 70 72 73 73 72 71 72 71 73 73 73 72 72 73 72 72 73 74 74 72 73 74 72 73 72 73 73 72 73 74 73 75 76 73 73 75 75 74 72
61 60 59 57 58 58 60 63 63 64 66 67 68 68 69 69 70 70 72 72 72 72 73 73 72 72 74 74 74 73 72 72 73 73 73 72 71 71 70 71 72 74 73 72 71 73 73 72 72 74 74 74 74 75 74 75 74 74 74 75 75 74 73
61 61 61 61 59 59 62 63 64 65 66 67 69 69 69 70 72 72 72 73 73 73 73 73 72 73 74 74 74 73 72 73 73 71 71 71 71 71 70 70 71 73 72 72 71 71 74 73 73 73 76 74 75 75 75 75 74 74 74 75 75 74 74
63 64 64 62 61 61 63 62 63 66 66 69 69 68 70 71 72 72 73 73 73 73 73 72 73 72 73 73 74 74 73 72 72 72 72 71 70 70 70 70 70 72 72 72 71 72 72 74 75 75 75 73 74 75 75 75 75 75 74 74 74 74 73
63 64 64 64 63 63 62 64 66 67 68 69 68 68 71 71 71 72 73 73 73 73 73 73 74 74 74 74 74 75 75 74 73 72 72 72 71 70 70 70 70 71 72 72 72 73 72 73 73 73 74 74 73 74 75 76 76 76 76 74 74 74 74
63 64 65 64 64 64 66 67 67 67 68 68 67 67 69 70 71 72 72 73 73 74 74 74 75 74 75 74 74 75 75 74 73 73 72 72 71 70 71 71 70 71 71 72 73 72 72 71 73 74 73 74 73 73 75 76 75 77 77 75 75 74 75
64 64 66 66 65 65 65 66 67 68 68 68 68 67 69 70 70 71 72 72 73 73 74 74 74 75 75 74 74 75 74 74 74 75 74 73 74 73 71 71 71 72 72 73 73 72 72 71 71 72 73 73 73 74 75 76 75 76 77 76 75 74 74
65 65 66 65 67 67 66 66 67 68 67 68 68 68 68 68 69 71 72 73 73 73 74 74 74 75 75 74 74 75 75 75 75 76 76 75 75 74 73 72 73 73 74 74 73 70 71 72 71 72 72 73 73 74 74 73 74 74 75 75 76 75 73
65 66 66 67 67 67 66 67 67 68 68 68 68 68 67 68 70 70 70 72 73 73 74 74 74 74 74 74 75 75 76 76 76 76 76 76 76 76 75 74 74 72 73 73 73 73 74 74 73 72 71 72 73 73 72 72 72 75 76 75 74 75 73
65 66 67 67 68 67 67 67 68 68 68 68 68 69 69 70 71 71 72 72 73 73 74 74 74 74 74 74 75 75 76 76 75 76 76 76 76 76 76 76 75 75 74 74 74 74 75 74 73 72 71 70 71 71 70 70 71 75 70 70 73 75 74
64 64 65 66 67 68 68 68 68 68 69 69 70 69 70 71 71 71 71 72 73 74 74 74 74 74 74 74 75 75 74 74 74 75 75 76 76 76 76 76 76 76 76 74 73 75 74 73 73 73 72 71 71 70 70 70 74 69 69 70 70 74 74
65 64 65 65 66 67 67 68 69 69 70 70 71 71 72 72 71 71 72 73 74 75 74 74 74 74 74 75 75 75 74 74 73 74 74 75 75 76 76 76 76 76 76 75 74 73 74 74 73 73 73 72 72 71 70 70 71 67 68 68 68 69 75
64 65 65 66 66 67 67 68 69 69 69 69 70 71 72 72 73 73 74 74 75 74 74 75 74 74 74 74 73 74 74 74 74 74 74 74 75 75 75 75 75 75 75 75 75 75 74 72 73 73 74 73 73 73 72 71 70 67 67 67 67 68 71
64 64 65 65 66 66 66 67 68 69 69 69 70 71 71 72 73 74 74 74 74 74 74 74 74 73 73 73 73 73 73 73 73 73 73 73 73 73 74 74 75 75 75 76 75 75 75 74 74 74 73 72 72 72 71 69 61 62 62 62 63 65 70
63 63 63 64 64 65 65 66 67 68 69 70 69 70 70 70 71 73 72 73 73 74 74 74 73 73 73 72 72 72 73 73 73 72 72 72 73 73 72 73 74 75 75 75 75 75 76 76 74 74 74 74 74 72 71 65 58 59 59 59 60 65 68
62 63 63 64 64 64 65 66 66 67 68 68 68 68 68 68 69 70 71 71 72 72 72 72 72 72 72 72 71 72 71 70 71 71 71 72 72 73 73 73 73 73 73 73 73 73 74 73 73 73 73 73 73 73 73 68 60 56 57 58 58 64 71
61 62 62 63 63 64 65 65 66 66 66 67 68 69 69 69 70 69 69 70 70 71 71 71 71 72 72 71 71 71 71 71 71 71 71 71 71 72 72 72 72 72 72 72 72 72 73 73 72 71 72 71 71 71 71 67 60 54 54 56 59 66 71
60 61 62 62 62 63 63 64 65 65 66 66 66 67 68 69 69 69 68 69 69 69 70 69 69 69 70 70 70 70 70 71 71 70 70 70 70 70 70 71 71 71 71 70 70 71 71 71 70 70 70 70 69 68 69 67 64 55 54 56 59 68 72
58 59 60 61 61 62 63 63 64 63 64 64 65 67 67 68 68 67 67 67 68 68 68 68 68 69 69 69 69 70 70 71 70 70 70 70 70 70 71 71 71 71 71 70 70 69 71 70 70 69 68 68 67 66 66 65 64 59 53 54 58 63 71
58 59 60 60 60 62 62 62 62 63 63 64 65 65 66 66 66 65 65 65 65 65 66 67 68 69 69 69 69 69 69 70 70 70 71 70 70 71 71 71 71 71 70 70 70 70 70 68 68 67 66 66 66 65 64 63 62 58 52 51 54 59 68
58 58 59 60 61 60 60 60 61 62 63 64 64 65 65 64 63 63 63 63 63 64 65 66 67 68 67 67 68 68 69 70 70 71 70 70 70 70 70 70 70 70 71 71 70 69 68 67 66 65 63 63 64 63 64 62 61 60 55 52 51 52 59
58 58 58 58 59 59 58 58 58 58 59 61 63 64 64 64 62 62 62 62 62 63 64 65 66 65 65 66 67 67 67 68 68 69 69 69 70 69 69 69 70 70 71 70 69 67 66 66 64 63 62 61 62 62 62 62 61 59 59 54 51 50 51
58 58 57 56 56 57 57 57 57 56 58 58 60 61 62 61 62 62 62 62 64 64 64 64 64 64 65 65 65 65 66 66 66 67 67 68 68 68 68 68 69 69 70 68 67 66 65 64 63 63 61 60 59 60 61 62 62 59 58 58 54 52 51
58 57 56 57 56 58 56 56 56 55 56 57 59 61 61 61 60 61 60 62 64 64 63 64 64 65 64 64 64 64 63 63 63 64 64 65 67 67 68 67 67 66 67 67 66 66 65 65 65 63 62 61 60 59 59 59 60 62 60 58 57 55 53
58 57 56 56 57 57 56 55 55 55 56 56 57 58 60 61 60 60 61 62 64 64 64 64 65 65 64 64 64 64 64 62 62 61 61 61 63 65 66 66 66 66 65 66 65 65 65 64 64 63 62 60 60 60 59 60 60 60 60 59 59 58 56
58 58 57 57 58 58 57 56 54 55 56 56 58 57 57 59 59 61 62 62 61 62 64 65 64 64 66 65 64 63 63 61 60 59 59 59 59 60 62 65 65 66 66 64 65 64 65 63 63 62 61 61 60 60 60 59 59 60 60 60 60 59 59
58 57 57 58 58 58 57 57 57 57 58 58 59 59 59 59 59 61 61 60 61 62 64 64 64 63 63 63 64 64 63 62 62 60 58 58 57 57 58 58 61 61 59 59 61 63 63 62 62 62 61 60 60 59 58 58 56 57 57 55 54 54 56
58 58 58 58 59 59 59 59 58 59 58 59 59 59 60 60 60 60 61 61 62 64 63 63 63 63 61 61 61 61 62 59 58 58 57 55 55 53 53 52 54 58 58 57 56 57 60 62 63 62 59 59 59 58 58 54 53 54 49 54 45 51 56
59 58 59 60 60 60 60 61 60 59 60 60 61 60 60 61 61 61 59 62 63 63 63 64 63 63 62 62 61 60 60 59 57 58 58 56 54 54 53 51 46 47 56 56 53 49 47 51 63 60 59 57 55 57 59 54 55 45 42 41 40 41 41
58 59 59 59 59 60 61 61 61 60 60 61 61 61 60 61 61 61 61 62 63 63 63 63 63 62 61 61 61 60 60 59 58 59 59 59 59 58 57 55 53 43 43 48 49 46 43 44 46 49 53 57 54 52 47 47 44 41 40 40 40 40 39
60 60 60 61 60 60 60 60 60 60 61 61 61 61 61 60 60 62 60 62 62 62 63 63 63 62 61 59 60 61 60 59 59 59 58 59 59 59 59 57 56 55 46 42 44 43 42 42 43 45 47 49 53 56 54 46 41 39 40 40 41 42 42